| time (UTC) | temp F | wind direction | speed MPH | gust MPH | rain 1hr in | rain 24hr in | rain mn in | humidity % | barometer mb |
| 20260509231220 | 83 | 326 | 10.0 | 24.0 | 0.00 | 0.00 | 0.00 | 8 | 1020.1 |
| 20260509230456 | 84 | 250 | 9.0 | 20.0 | 0.00 | 0.00 | 0.00 | 9 | 1020.1 |
| 20260509230228 | 84 | 289 | 7.0 | 19.0 | 0.00 | 0.00 | 0.00 | 10 | 1020.2 |
| 20260509225705 | 84 | 315 | 8.0 | 16.0 | 0.00 | 0.00 | 0.00 | 10 | 1020.4 |
| 20260509224948 | 83 | 302 | 10.0 | 20.0 | 0.00 | 0.00 | 0.00 | 10 | 1020.0 |
| 20260509224437 | 84 | 311 | 11.0 | 20.0 | 0.00 | 0.00 | 0.00 | 9 | 1020.2 |
| 20260509223932 | 85 | 304 | 10.0 | 19.0 | 0.00 | 0.00 | 0.00 | 9 | 1020.7 |
| 20260509223428 | 85 | 288 | 9.0 | 20.0 | 0.00 | 0.00 | 0.00 | 10 | 1020.8 |
| 20260509223135 | 85 | 259 | 9.0 | 20.0 | 0.00 | 0.00 | 0.00 | 10 | 1021.0 |
| 20260509222411 | 85 | 225 | 9.0 | 20.0 | 0.00 | 0.00 | 0.00 | 10 | 1020.6 |
| 20260509221904 | 85 | 257 | 9.0 | 20.0 | 0.00 | 0.00 | 0.00 | 10 | 1020.8 |
| 20260509221353 | 85 | 254 | 9.0 | 16.0 | 0.00 | 0.00 | 0.00 | 10 | 1020.6 |
| 20260509221329 | 84 | 287 | 11.0 | 25.0 | 0.00 | 0.00 | 0.00 | 9 | 1020.6 |
| 20260509220346 | 84 | 300 | 10.0 | 25.0 | 0.00 | 0.00 | 0.00 | 9 | 1020.7 |
| 20260509215846 | 85 | 296 | 8.0 | 19.0 | 0.00 | 0.00 | 0.00 | 10 | 1021.0 |
| 20260509215346 | 85 | 338 | 8.0 | 19.0 | 0.00 | 0.00 | 0.00 | 10 | 1020.8 |
| 20260509214843 | 85 | 264 | 8.0 | 18.0 | 0.00 | 0.00 | 0.00 | 10 | 1020.8 |
| 20260509214342 | 85 | 294 | 11.0 | 25.0 | 0.00 | 0.00 | 0.00 | 10 | 1020.7 |
| 20260509213840 | 85 | 296 | 11.0 | 25.0 | 0.00 | 0.00 | 0.00 | 10 | 1021.0 |
| 20260509213341 | 85 | 292 | 9.0 | 20.0 | 0.00 | 0.00 | 0.00 | 9 | 1021.2 |
| 20260509212840 | 85 | 251 | 8.0 | 14.0 | 0.00 | 0.00 | 0.00 | 10 | 1021.2 |
| 20260509212340 | 85 | 317 | 8.0 | 16.0 | 0.00 | 0.00 | 0.00 | 11 | 1021.3 |
| 20260509212103 | 85 | 318 | 7.0 | 16.0 | 0.00 | 0.00 | 0.00 | 11 | 1021.6 |
| 20260509211338 | 84 | 310 | 7.0 | 14.0 | 0.00 | 0.00 | 0.00 | 11 | 1021.3 |
| 20260509210838 | 83 | 290 | 9.0 | 20.0 | 0.00 | 0.00 | 0.00 | 11 | 1020.8 |
| 20260509210337 | 82 | 298 | 9.0 | 20.0 | 0.00 | 0.00 | 0.00 | 12 | 1020.8 |
| 20260509205832 | 84 | 300 | 8.0 | 18.0 | 0.00 | 0.00 | 0.00 | 11 | 1021.3 |
| 20260509205332 | 83 | 296 | 11.0 | 22.0 | 0.00 | 0.00 | 0.00 | 12 | 1021.2 |
| 20260509204833 | 82 | 300 | 11.0 | 24.0 | 0.00 | 0.00 | 0.00 | 12 | 1021.0 |
| 20260509204336 | 84 | 294 | 9.0 | 24.0 | 0.00 | 0.00 | 0.00 | 11 | 1021.5 |
| 20260509203838 | 83 | 335 | 8.0 | 15.0 | 0.00 | 0.00 | 0.00 | 12 | 1021.6 |
| 20260509203331 | 85 | 282 | 10.0 | 21.0 | 0.00 | 0.00 | 0.00 | 11 | 1022.1 |
| 20260509202832 | 84 | 271 | 10.0 | 21.0 | 0.00 | 0.00 | 0.00 | 11 | 1022.1 |
| 20260509202324 | 85 | 284 | 9.0 | 20.0 | 0.00 | 0.00 | 0.00 | 12 | 1022.2 |
| 20260509202041 | 84 | 349 | 8.0 | 14.0 | 0.00 | 0.00 | 0.00 | 12 | 1022.1 |
| 20260509201320 | 84 | 333 | 9.0 | 18.0 | 0.00 | 0.00 | 0.00 | 12 | 1022.2 |
| 20260509200820 | 83 | 327 | 10.0 | 19.0 | 0.00 | 0.00 | 0.00 | 12 | 1022.1 |
| 20260509200319 | 83 | 267 | 9.0 | 19.0 | 0.00 | 0.00 | 0.00 | 12 | 1022.2 |
| 20260509195818 | 84 | 302 | 8.0 | 18.0 | 0.00 | 0.00 | 0.00 | 12 | 1022.4 |
| 20260509195319 | 83 | 290 | 10.0 | 22.0 | 0.00 | 0.00 | 0.00 | 11 | 1022.2 |
| 20260509194818 | 83 | 308 | 12.0 | 22.0 | 0.00 | 0.00 | 0.00 | 12 | 1022.1 |
| 20260509194537 | 82 | 304 | 8.0 | 22.0 | 0.00 | 0.00 | 0.00 | 11 | 1021.7 |
| 20260509193814 | 82 | 317 | 7.0 | 21.0 | 0.00 | 0.00 | 0.00 | 12 | 1021.5 |
| 20260509193311 | 82 | 290 | 8.0 | 21.0 | 0.00 | 0.00 | 0.00 | 11 | 1021.6 |
| 20260509193303 | 80 | 315 | 8.0 | 16.0 | 0.00 | 0.00 | 0.00 | 13 | 1021.0 |
| 20260509192306 | 80 | 340 | 9.0 | 16.0 | 0.00 | 0.00 | 0.00 | 12 | 1021.1 |
| 20260509192237 | 82 | 339 | 9.0 | 19.0 | 0.00 | 0.00 | 0.00 | 11 | 1021.8 |
| 20260509191509 | 83 | 244 | 10.0 | 19.0 | 0.00 | 0.00 | 0.00 | 12 | 1022.3 |
| 20260509190751 | 83 | 252 | 8.0 | 16.0 | 0.00 | 0.00 | 0.00 | 12 | 1022.3 |
| 20260509190250 | 82 | 273 | 5.0 | 13.0 | 0.00 | 0.00 | 0.00 | 12 | 1022.1 |
| 20260509185749 | 81 | 213 | 5.0 | 10.0 | 0.00 | 0.00 | 0.00 | 13 | 1021.6 |
| 20260509185243 | 80 | 302 | 4.0 | 10.0 | 0.00 | 0.00 | 0.00 | 15 | 1021.5 |
| 20260509184742 | 79 | 126 | 4.0 | 9.0 | 0.00 | 0.00 | 0.00 | 15 | 1021.2 |
| 20260509184239 | 79 | 122 | 2.0 | 8.0 | 0.00 | 0.00 | 0.00 | 14 | 1021.1 |
| 20260509183959 | 78 | 204 | 2.0 | 5.0 | 0.00 | 0.00 | 0.00 | 15 | 1021.1 |
| 20260509183503 | 79 | 204 | 2.0 | 6.0 | 0.00 | 0.00 | 0.00 | 15 | 1021.3 |
| 20260509182735 | 80 | 220 | 3.0 | 10.0 | 0.00 | 0.00 | 0.00 | 14 | 1021.7 |
| 20260509182236 | 80 | 247 | 2.0 | 10.0 | 0.00 | 0.00 | 0.00 | 16 | 1021.8 |
| 20260509181735 | 79 | 176 | 2.0 | 7.0 | 0.00 | 0.00 | 0.00 | 16 | 1021.7 |
| 20260509181233 | 78 | 178 | 2.0 | 8.0 | 0.00 | 0.00 | 0.00 | 16 | 1021.3 |
| 20260509180733 | 78 | 191 | 1.0 | 8.0 | 0.00 | 0.00 | 0.00 | 16 | 1021.2 |
| 20260509180233 | 77 | 104 | 1.0 | 5.0 | 0.00 | 0.00 | 0.00 | 17 | 1021.2 |
| 20260509175732 | 77 | 98 | 3.0 | 6.0 | 0.00 | 0.00 | 0.00 | 16 | 1021.1 |
| 20260509175231 | 77 | 97 | 4.0 | 9.0 | 0.00 | 0.00 | 0.00 | 16 | 1021.2 |
| 20260509174730 | 77 | 69 | 4.0 | 10.0 | 0.00 | 0.00 | 0.00 | 15 | 1021.5 |
| 20260509174223 | 77 | 51 | 2.0 | 10.0 | 0.00 | 0.00 | 0.00 | 16 | 1021.5 |
| 20260509173718 | 77 | 141 | 3.0 | 8.0 | 0.00 | 0.00 | 0.00 | 16 | 1021.5 |
| 20260509173216 | 77 | 141 | 2.0 | 8.0 | 0.00 | 0.00 | 0.00 | 16 | 1021.6 |
| 20260509172711 | 77 | 150 | 3.0 | 9.0 | 0.00 | 0.00 | 0.00 | 16 | 1021.6 |
| 20260509172210 | 77 | 150 | 4.0 | 9.0 | 0.00 | 0.00 | 0.00 | 15 | 1021.7 |
| 20260509171705 | 77 | 102 | 3.0 | 9.0 | 0.00 | 0.00 | 0.00 | 16 | 1021.9 |
| 20260509171206 | 77 | 67 | 5.0 | 10.0 | 0.00 | 0.00 | 0.00 | 17 | 1021.9 |
| 20260509170703 | 78 | 107 | 6.0 | 11.0 | 0.00 | 0.00 | 0.00 | 16 | 1021.9 |
| 20260509170206 | 78 | 63 | 6.0 | 11.0 | 0.00 | 0.00 | 0.00 | 16 | 1022.2 |
| 20260509165702 | 78 | 63 | 5.0 | 11.0 | 0.00 | 0.00 | 0.00 | 17 | 1022.2 |
| 20260509165203 | 78 | 83 | 5.0 | 11.0 | 0.00 | 0.00 | 0.00 | 17 | 1022.1 |
| 20260509164703 | 78 | 50 | 5.0 | 10.0 | 0.00 | 0.00 | 0.00 | 19 | 1022.2 |
| 20260509164159 | 78 | 84 | 5.0 | 10.0 | 0.00 | 0.00 | 0.00 | 19 | 1022.2 |
| 20260509163659 | 77 | 70 | 5.0 | 11.0 | 0.00 | 0.00 | 0.00 | 20 | 1021.9 |
| 20260509163159 | 76 | 69 | 4.0 | 11.0 | 0.00 | 0.00 | 0.00 | 19 | 1021.7 |
| 20260509162653 | 75 | 104 | 3.0 | 8.0 | 0.00 | 0.00 | 0.00 | 20 | 1021.3 |
| 20260509162153 | 75 | 104 | 4.0 | 8.0 | 0.00 | 0.00 | 0.00 | 20 | 1021.2 |
| 20260509161650 | 75 | 126 | 3.0 | 7.0 | 0.00 | 0.00 | 0.00 | 20 | 1021.2 |
| 20260509161150 | 75 | 177 | 2.0 | 6.0 | 0.00 | 0.00 | 0.00 | 19 | 1021.3 |
| 20260509160909 | 74 | 186 | 3.0 | 8.0 | 0.00 | 0.00 | 0.00 | 19 | 1021.1 |
| 20260509160143 | 74 | 186 | 3.0 | 8.0 | 0.00 | 0.00 | 0.00 | 21 | 1020.8 |
| 20260509155639 | 73 | 186 | 4.0 | 7.0 | 0.00 | 0.00 | 0.00 | 22 | 1020.6 |
| 20260509155401 | 72 | 138 | 3.0 | 7.0 | 0.00 | 0.00 | 0.00 | 22 | 1020.2 |
| 20260509154635 | 71 | 161 | 3.0 | 7.0 | 0.00 | 0.00 | 0.00 | 23 | 1019.9 |
| 20260509154132 | 70 | 149 | 4.0 | 9.0 | 0.00 | 0.00 | 0.00 | 22 | 1019.7 |
| 20260509153631 | 70 | 148 | 4.0 | 9.0 | 0.00 | 0.00 | 0.00 | 23 | 1019.7 |
| 20260509153131 | 70 | 125 | 3.0 | 8.0 | 0.00 | 0.00 | 0.00 | 23 | 1019.5 |
| 20260509152631 | 69 | 104 | 2.0 | 6.0 | 0.00 | 0.00 | 0.00 | 24 | 1019.6 |
| 20260509152351 | 69 | 88 | 1.0 | 6.0 | 0.00 | 0.00 | 0.00 | 25 | 1019.4 |
| 20260509151631 | 69 | 51 | 2.0 | 7.0 | 0.00 | 0.00 | 0.00 | 26 | 1019.1 |
| 20260509151130 | 68 | 42 | 3.0 | 7.0 | 0.00 | 0.00 | 0.00 | 25 | 1019.1 |
| 20260509150631 | 67 | 42 | 2.0 | 6.0 | 0.00 | 0.00 | 0.00 | 26 | 1019.0 |
| 20260509150350 | 67 | 41 | 3.0 | 7.0 | 0.00 | 0.00 | 0.00 | 27 | 1018.8 |
| 20260509145629 | 67 | 39 | 4.0 | 7.0 | 0.00 | 0.00 | 0.00 | 26 | 1018.8 |
| 20260509145120 | 66 | 34 | 3.0 | 6.0 | 0.00 | 0.00 | 0.00 | 26 | 1018.4 |
| 20260509144840 | 66 | 32 | 3.0 | 7.0 | 0.00 | 0.00 | 0.00 | 26 | 1018.2 |
| 20260509144114 | 66 | 33 | 3.0 | 7.0 | 0.00 | 0.00 | 0.00 | 27 | 1018.3 |
| 20260509143607 | 65 | 29 | 2.0 | 6.0 | 0.00 | 0.00 | 0.00 | 27 | 1018.3 |
| 20260509143103 | 65 | 25 | 1.0 | 5.0 | 0.00 | 0.00 | 0.00 | 27 | 1017.9 |
| 20260509142603 | 65 | 24 | 1.0 | 3.0 | 0.00 | 0.00 | 0.00 | 27 | 1017.9 |
| 20260509142556 | 64 | 24 | 1.0 | 3.0 | 0.00 | 0.00 | 0.00 | 28 | 1017.8 |
| 20260509141604 | 64 | 24 | 1.0 | 3.0 | 0.00 | 0.00 | 0.00 | 28 | 1017.6 |
| 20260509141101 | 63 | 24 | 1.0 | 6.0 | 0.00 | 0.00 | 0.00 | 28 | 1017.4 |
| 20260509140555 | 63 | 24 | 1.0 | 6.0 | 0.00 | 0.00 | 0.00 | 29 | 1017.2 |
| 20260509140055 | 62 | 24 | 1.0 | 5.0 | 0.00 | 0.00 | 0.00 | 30 | 1017.1 |
| 20260509135550 | 62 | 24 | 2.0 | 6.0 | 0.00 | 0.00 | 0.00 | 30 | 1017.0 |
| 20260509135525 | 60 | 24 | 1.0 | 6.0 | 0.00 | 0.00 | 0.00 | 31 | 1016.3 |
| 20260509134548 | 59 | 349 | 0.0 | 3.0 | 0.00 | 0.00 | 0.00 | 34 | 1016.0 |
| 20260509134048 | 57 | 349 | 0.0 | 0.0 | 0.00 | 0.00 | 0.00 | 35 | 1015.0 |
| 20260509133535 | 56 | 349 | 0.0 | 0.0 | 0.00 | 0.00 | 0.00 | 37 | 1014.4 |
| 20260509133037 | 54 | 349 | 0.0 | 0.0 | 0.00 | 0.00 | 0.00 | 39 | 1013.6 |
| 20260509132531 | 53 | 349 | 0.0 | 0.0 | 0.00 | 0.00 | 0.00 | 42 | 1012.9 |
| 20260509132028 | 51 | 349 | 0.0 | 0.0 | 0.00 | 0.00 | 0.00 | 43 | 1012.3 |
| 20260509131522 | 49 | 349 | 0.0 | 0.0 | 0.00 | 0.00 | 0.00 | 44 | 1011.6 |
| 20260509131230 | 48 | 349 | 0.0 | 0.0 | 0.00 | 0.00 | 0.00 | 46 | 1010.8 |
| 20260509130502 | 46 | 349 | 0.0 | 0.0 | 0.00 | 0.00 | 0.00 | 48 | 1010.2 |
| 20260509125958 | 45 | 349 | 0.0 | 0.0 | 0.00 | 0.00 | 0.00 | 50 | 1009.5 |
| 20260509125447 | 44 | 349 | 0.0 | 0.0 | 0.00 | 0.00 | 0.00 | 50 | 1008.9 |
| 20260509124943 | 43 | 349 | 0.0 | 0.0 | 0.00 | 0.00 | 0.00 | 49 | 1008.6 |
| 20260509124432 | 43 | 349 | 1.0 | 3.0 | 0.00 | 0.00 | 0.00 | 49 | 1008.3 |
| 20260509123931 | 42 | 349 | 1.0 | 3.0 | 0.00 | 0.00 | 0.00 | 49 | 1008.2 |
| 20260509123431 | 42 | 349 | 1.0 | 2.0 | 0.00 | 0.00 | 0.00 | 49 | 1008.2 |
| 20260509122931 | 43 | 349 | 0.0 | 2.0 | 0.00 | 0.00 | 0.00 | 48 | 1008.2 |
| 20260509122429 | 43 | 349 | 1.0 | 3.0 | 0.00 | 0.00 | 0.00 | 48 | 1008.2 |
| 20260509121930 | 43 | 349 | 1.0 | 5.0 | 0.00 | 0.00 | 0.00 | 48 | 1008.3 |
| 20260509121430 | 43 | 349 | 1.0 | 5.0 | 0.00 | 0.00 | 0.00 | 47 | 1008.1 |
| 20260509120935 | 44 | 349 | 1.0 | 4.0 | 0.00 | 0.00 | 0.00 | 47 | 1008.4 |
| 20260509120428 | 44 | 349 | 2.0 | 5.0 | 0.00 | 0.00 | 0.00 | 46 | 1008.4 |
| 20260509115922 | 44 | 349 | 3.0 | 6.0 | 0.00 | 0.00 | 0.00 | 47 | 1008.3 |
| 20260509115420 | 44 | 349 | 3.0 | 6.0 | 0.00 | 0.00 | 0.00 | 47 | 1008.2 |
| 20260509114921 | 44 | 350 | 2.0 | 5.0 | 0.00 | 0.00 | 0.00 | 46 | 1008.2 |
| 20260509114419 | 44 | 350 | 2.0 | 4.0 | 0.00 | 0.00 | 0.00 | 46 | 1008.2 |
| 20260509113918 | 44 | 350 | 2.0 | 5.0 | 0.00 | 0.00 | 0.00 | 45 | 1008.2 |
| 20260509113623 | 45 | 350 | 3.0 | 6.0 | 0.00 | 0.00 | 0.00 | 46 | 1008.3 |
| 20260509112905 | 45 | 350 | 2.0 | 6.0 | 0.00 | 0.00 | 0.00 | 45 | 1008.3 |
| 20260509112627 | 45 | 350 | 1.0 | 4.0 | 0.00 | 0.00 | 0.00 | 45 | 1008.6 |
| 20260509111900 | 46 | 350 | 0.0 | 2.0 | 0.00 | 0.00 | 0.00 | 44 | 1008.8 |
| 20260509111620 | 46 | 350 | 2.0 | 7.0 | 0.00 | 0.00 | 0.00 | 44 | 1008.9 |
| 20260509110859 | 46 | 350 | 4.0 | 7.0 | 0.00 | 0.00 | 0.00 | 44 | 1009.1 |
| 20260509110358 | 46 | 355 | 3.0 | 6.0 | 0.00 | 0.00 | 0.00 | 44 | 1008.9 |
| 20260509105857 | 46 | 355 | 2.0 | 5.0 | 0.00 | 0.00 | 0.00 | 43 | 1009.1 |
| 20260509105355 | 47 | 355 | 2.0 | 5.0 | 0.00 | 0.00 | 0.00 | 43 | 1009.2 |
| 20260509104856 | 47 | 355 | 1.0 | 4.0 | 0.00 | 0.00 | 0.00 | 42 | 1009.3 |
| 20260509104354 | 47 | 355 | 1.0 | 4.0 | 0.00 | 0.00 | 0.00 | 42 | 1009.3 |
| 20260509103844 | 48 | 355 | 1.0 | 5.0 | 0.00 | 0.00 | 0.00 | 41 | 1009.4 |
| 20260509103343 | 48 | 355 | 3.0 | 5.0 | 0.00 | 0.00 | 0.00 | 41 | 1009.4 |
| 20260509102837 | 48 | 355 | 3.0 | 6.0 | 0.00 | 0.00 | 0.00 | 41 | 1009.5 |
| 20260509102336 | 48 | 355 | 3.0 | 6.0 | 0.00 | 0.00 | 0.00 | 41 | 1009.5 |
| 20260509101834 | 48 | 0 | 3.0 | 5.0 | 0.00 | 0.00 | 0.00 | 41 | 1009.7 |
| 20260509101558 | 48 | 0 | 2.0 | 5.0 | 0.00 | 0.00 | 0.00 | 40 | 1009.5 |
| 20260509101056 | 49 | 0 | 2.0 | 5.0 | 0.00 | 0.00 | 0.00 | 40 | 1009.8 |
| 20260509100330 | 49 | 0 | 3.0 | 5.0 | 0.00 | 0.00 | 0.00 | 39 | 1009.9 |
| 20260509100051 | 49 | 0 | 3.0 | 5.0 | 0.00 | 0.00 | 0.00 | 39 | 1009.8 |
| 20260509095326 | 49 | 0 | 3.0 | 5.0 | 0.00 | 0.00 | 0.00 | 39 | 1009.8 |
| 20260509094820 | 49 | 0 | 3.0 | 5.0 | 0.00 | 0.00 | 0.00 | 39 | 1009.9 |
| 20260509094315 | 49 | 0 | 2.0 | 5.0 | 0.00 | 0.00 | 0.00 | 38 | 1010.0 |
| 20260509093816 | 49 | 0 | 2.0 | 5.0 | 0.00 | 0.00 | 0.00 | 38 | 1010.0 |
| 20260509093810 | 49 | 0 | 2.0 | 5.0 | 0.00 | 0.00 | 0.00 | 39 | 1009.8 |
| 20260509092811 | 48 | 0 | 2.0 | 5.0 | 0.00 | 0.00 | 0.00 | 41 | 1009.3 |
| 20260509092307 | 47 | 0 | 3.0 | 5.0 | 0.00 | 0.00 | 0.00 | 42 | 1008.8 |
| 20260509091804 | 46 | 5 | 3.0 | 5.0 | 0.00 | 0.00 | 0.00 | 43 | 1008.3 |
| 20260509091303 | 46 | 28 | 2.0 | 5.0 | 0.00 | 0.00 | 0.00 | 42 | 1008.4 |
| 20260509090803 | 46 | 28 | 1.0 | 4.0 | 0.00 | 0.00 | 0.00 | 41 | 1008.6 |
| 20260509090303 | 46 | 28 | 1.0 | 3.0 | 0.00 | 0.00 | 0.00 | 40 | 1008.7 |
| 20260509085803 | 47 | 28 | 1.0 | 3.0 | 0.00 | 0.00 | 0.00 | 40 | 1008.9 |
| 20260509085306 | 47 | 28 | 1.0 | 3.0 | 0.00 | 0.00 | 0.00 | 39 | 1009.1 |
| 20260509084803 | 48 | 28 | 0.0 | 2.0 | 0.00 | 0.00 | 0.00 | 39 | 1009.4 |
| 20260509084523 | 48 | 28 | 0.0 | 3.0 | 0.00 | 0.00 | 0.00 | 39 | 1009.4 |
| 20260509083803 | 48 | 28 | 1.0 | 4.0 | 0.00 | 0.00 | 0.00 | 39 | 1009.5 |
| 20260509083522 | 48 | 28 | 1.0 | 4.0 | 0.00 | 0.00 | 0.00 | 38 | 1009.8 |
| 20260509083026 | 49 | 29 | 1.0 | 2.0 | 0.00 | 0.00 | 0.00 | 39 | 1009.8 |
| 20260509082306 | 49 | 29 | 1.0 | 2.0 | 0.00 | 0.00 | 0.00 | 38 | 1009.8 |
| 20260509081758 | 49 | 29 | 0.0 | 2.0 | 0.00 | 0.00 | 0.00 | 38 | 1009.8 |
| 20260509081251 | 49 | 29 | 0.0 | 3.0 | 0.00 | 0.00 | 0.00 | 37 | 1009.8 |
| 20260509080751 | 49 | 29 | 0.0 | 3.0 | 0.00 | 0.00 | 0.00 | 37 | 1010.2 |
| 20260509080241 | 50 | 29 | 0.0 | 1.0 | 0.00 | 0.00 | 0.00 | 36 | 1010.3 |
| 20260509075741 | 50 | 28 | 0.0 | 0.0 | 0.00 | 0.00 | 0.00 | 36 | 1010.4 |
| 20260509075234 | 50 | 28 | 0.0 | 2.0 | 0.00 | 0.00 | 0.00 | 36 | 1010.6 |
| 20260509074732 | 51 | 28 | 1.0 | 3.0 | 0.00 | 0.00 | 0.00 | 36 | 1010.6 |
| 20260509074230 | 51 | 28 | 1.0 | 3.0 | 0.00 | 0.00 | 0.00 | 35 | 1010.8 |
| 20260509073731 | 51 | 29 | 0.0 | 4.0 | 0.00 | 0.00 | 0.00 | 35 | 1010.6 |
| 20260509073231 | 51 | 29 | 1.0 | 4.0 | 0.00 | 0.00 | 0.00 | 35 | 1010.8 |
| 20260509072731 | 51 | 29 | 1.0 | 4.0 | 0.00 | 0.00 | 0.00 | 35 | 1010.9 |
| 20260509072229 | 51 | 29 | 0.0 | 3.0 | 0.00 | 0.00 | 0.00 | 35 | 1011.0 |
| 20260509071729 | 51 | 29 | 0.0 | 3.0 | 0.00 | 0.00 | 0.00 | 36 | 1011.0 |
| 20260509071230 | 51 | 29 | 0.0 | 0.0 | 0.00 | 0.00 | 0.00 | 35 | 1011.0 |
| 20260509070726 | 52 | 29 | 0.0 | 0.0 | 0.00 | 0.00 | 0.00 | 34 | 1011.2 |
| 20260509070225 | 53 | 29 | 0.0 | 0.0 | 0.00 | 0.00 | 0.00 | 35 | 1011.4 |
| 20260509065721 | 53 | 29 | 0.0 | 0.0 | 0.00 | 0.00 | 0.00 | 34 | 1011.7 |
| 20260509065218 | 54 | 29 | 0.0 | 0.0 | 0.00 | 0.00 | 0.00 | 32 | 1012.0 |
| 20260509064715 | 54 | 29 | 0.0 | 0.0 | 0.00 | 0.00 | 0.00 | 31 | 1012.2 |
| 20260509064435 | 55 | 29 | 0.0 | 0.0 | 0.00 | 0.00 | 0.00 | 30 | 1012.5 |
| 20260509063704 | 56 | 29 | 0.0 | 0.0 | 0.00 | 0.00 | 0.00 | 30 | 1012.9 |
| 20260509063202 | 57 | 29 | 0.0 | 0.0 | 0.00 | 0.00 | 0.00 | 29 | 1013.3 |
| 20260509062931 | 58 | 29 | 0.0 | 0.0 | 0.00 | 0.00 | 0.00 | 28 | 1013.7 |
| 20260509062202 | 59 | 29 | 0.0 | 0.0 | 0.00 | 0.00 | 0.00 | 28 | 1014.0 |
| 20260509061935 | 60 | 29 | 0.0 | 0.0 | 0.00 | 0.00 | 0.00 | 27 | 1014.4 |
| 20260509061204 | 61 | 29 | 0.0 | 1.0 | 0.00 | 0.00 | 0.00 | 26 | 1014.9 |
| 20260509060703 | 62 | 29 | 0.0 | 3.0 | 0.00 | 0.00 | 0.00 | 26 | 1015.4 |
| 20260509060201 | 63 | 29 | 1.0 | 6.0 | 0.00 | 0.00 | 0.00 | 25 | 1015.5 |
| 20260509055656 | 63 | 29 | 2.0 | 6.0 | 0.00 | 0.00 | 0.00 | 25 | 1015.7 |
| 20260509055647 | 64 | 329 | 3.0 | 7.0 | 0.00 | 0.00 | 0.00 | 25 | 1016.0 |
| 20260509055636 | 64 | 301 | 5.0 | 11.0 | 0.00 | 0.00 | 0.00 | 24 | 1016.1 |
| 20260509054409 | 64 | 291 | 7.0 | 11.0 | 0.00 | 0.00 | 0.00 | 24 | 1016.1 |
| 20260509053647 | 64 | 302 | 7.0 | 11.0 | 0.00 | 0.00 | 0.00 | 24 | 1016.1 |
| 20260509053148 | 64 | 290 | 7.0 | 11.0 | 0.00 | 0.00 | 0.00 | 24 | 1016.1 |
| 20260509052906 | 64 | 290 | 6.0 | 12.0 | 0.00 | 0.00 | 0.00 | 24 | 1016.0 |
| 20260509052143 | 64 | 301 | 6.0 | 12.0 | 0.00 | 0.00 | 0.00 | 25 | 1015.9 |
| 20260509051642 | 63 | 313 | 6.0 | 12.0 | 0.00 | 0.00 | 0.00 | 25 | 1015.9 |
| 20260509051142 | 63 | 303 | 6.0 | 10.0 | 0.00 | 0.00 | 0.00 | 25 | 1015.9 |
| 20260509050643 | 62 | 296 | 6.0 | 12.0 | 0.00 | 0.00 | 0.00 | 25 | 1015.6 |
| 20260509050142 | 62 | 304 | 5.0 | 12.0 | 0.00 | 0.00 | 0.00 | 26 | 1015.6 |
| 20260509045640 | 62 | 303 | 5.0 | 9.0 | 0.00 | 0.00 | 0.00 | 25 | 1015.7 |
| 20260509045138 | 62 | 315 | 5.0 | 9.0 | 0.00 | 0.00 | 0.00 | 25 | 1015.7 |
| 20260509044855 | 62 | 290 | 4.0 | 8.0 | 0.00 | 0.00 | 0.00 | 25 | 1015.7 |
| 20260509044132 | 63 | 289 | 5.0 | 8.0 | 0.00 | 0.00 | 0.00 | 25 | 1015.9 |
| 20260509043630 | 63 | 291 | 5.0 | 9.0 | 0.00 | 0.00 | 0.00 | 25 | 1016.1 |
| 20260509043131 | 63 | 277 | 6.0 | 9.0 | 0.00 | 0.00 | 0.00 | 24 | 1016.2 |
| 20260509042631 | 63 | 266 | 5.0 | 8.0 | 0.00 | 0.00 | 0.00 | 24 | 1016.2 |
| 20260509042132 | 64 | 288 | 5.0 | 7.0 | 0.00 | 0.00 | 0.00 | 24 | 1016.3 |
| 20260509041622 | 64 | 282 | 5.0 | 8.0 | 0.00 | 0.00 | 0.00 | 24 | 1016.7 |
| 20260509041119 | 65 | 294 | 5.0 | 9.0 | 0.00 | 0.00 | 0.00 | 23 | 1016.8 |
| 20260509040615 | 65 | 294 | 6.0 | 9.0 | 0.00 | 0.00 | 0.00 | 23 | 1017.1 |
| 20260509040341 | 65 | 291 | 6.0 | 10.0 | 0.00 | 0.00 | 0.00 | 22 | 1017.2 |
| 20260509035612 | 66 | 304 | 6.0 | 11.0 | 0.00 | 0.00 | 0.00 | 22 | 1017.4 |
| 20260509035333 | 66 | 279 | 7.0 | 13.0 | 0.00 | 0.00 | 0.00 | 22 | 1017.4 |
| 20260509034608 | 67 | 299 | 7.0 | 13.0 | 0.00 | 0.00 | 0.00 | 21 | 1017.4 |
| 20260509034108 | 67 | 305 | 7.0 | 13.0 | 0.00 | 0.00 | 0.00 | 21 | 1017.6 |
| 20260509033830 | 67 | 304 | 8.0 | 13.0 | 0.00 | 0.00 | 0.00 | 21 | 1017.4 |
| 20260509033105 | 67 | 300 | 8.0 | 12.0 | 0.00 | 0.00 | 0.00 | 21 | 1017.3 |
| 20260509032606 | 67 | 306 | 7.0 | 13.0 | 0.00 | 0.00 | 0.00 | 21 | 1017.2 |
| 20260509032106 | 67 | 290 | 7.0 | 13.0 | 0.00 | 0.00 | 0.00 | 21 | 1017.2 |
| 20260509031603 | 67 | 299 | 7.0 | 13.0 | 0.00 | 0.00 | 0.00 | 21 | 1017.2 |
| 20260509031104 | 67 | 298 | 7.0 | 11.0 | 0.00 | 0.00 | 0.00 | 21 | 1017.2 |
| 20260509030604 | 67 | 281 | 7.0 | 13.0 | 0.00 | 0.00 | 0.00 | 20 | 1017.2 |
| 20260509030100 | 67 | 294 | 7.0 | 14.0 | 0.00 | 0.00 | 0.00 | 20 | 1017.2 |
| 20260509025817 | 67 | 288 | 7.0 | 14.0 | 0.00 | 0.00 | 0.00 | 20 | 1017.2 |
| 20260509025054 | 67 | 291 | 6.0 | 12.0 | 0.00 | 0.00 | 0.00 | 20 | 1017.2 |
| 20260509024554 | 67 | 290 | 7.0 | 12.0 | 0.00 | 0.00 | 0.00 | 20 | 1017.2 |
| 20260509024053 | 68 | 288 | 6.0 | 12.0 | 0.00 | 0.00 | 0.00 | 20 | 1017.2 |
| 20260509023554 | 68 | 290 | 6.0 | 11.0 | 0.00 | 0.00 | 0.00 | 20 | 1017.2 |
| 20260509023049 | 68 | 295 | 6.0 | 9.0 | 0.00 | 0.00 | 0.00 | 19 | 1017.3 |
| 20260509022547 | 69 | 292 | 5.0 | 9.0 | 0.00 | 0.00 | 0.00 | 19 | 1017.4 |
| 20260509022043 | 69 | 286 | 5.0 | 9.0 | 0.00 | 0.00 | 0.00 | 19 | 1017.4 |
| 20260509022022 | 69 | 279 | 6.0 | 9.0 | 0.00 | 0.00 | 0.00 | 18 | 1017.7 |
| 20260509021306 | 70 | 288 | 6.0 | 13.0 | 0.00 | 0.00 | 0.00 | 18 | 1017.8 |
| 20260509020538 | 70 | 300 | 8.0 | 15.0 | 0.00 | 0.00 | 0.00 | 18 | 1017.8 |
| 20260509020300 | 71 | 286 | 8.0 | 15.0 | 0.00 | 0.00 | 0.00 | 18 | 1017.9 |
| 20260509015750 | 71 | 295 | 8.0 | 16.0 | 0.00 | 0.00 | 0.00 | 17 | 1018.0 |
| 20260509015038 | 72 | 304 | 8.0 | 14.0 | 0.00 | 0.00 | 0.00 | 17 | 1018.0 |
| 20260509014534 | 72 | 290 | 8.0 | 14.0 | 0.00 | 0.00 | 0.00 | 16 | 1018.2 |
| 20260509014029 | 73 | 276 | 8.0 | 14.0 | 0.00 | 0.00 | 0.00 | 16 | 1018.4 |
| 20260509013526 | 74 | 313 | 7.0 | 14.0 | 0.00 | 0.00 | 0.00 | 15 | 1018.7 |
| 20260509013010 | 74 | 283 | 6.0 | 11.0 | 0.00 | 0.00 | 0.00 | 15 | 1018.8 |
| 20260509012504 | 75 | 295 | 6.0 | 11.0 | 0.00 | 0.00 | 0.00 | 14 | 1018.9 |
| 20260509012002 | 75 | 283 | 5.0 | 11.0 | 0.00 | 0.00 | 0.00 | 14 | 1019.1 |
| 20260509011453 | 76 | 300 | 6.0 | 11.0 | 0.00 | 0.00 | 0.00 | 14 | 1019.0 |
| 20260509010947 | 76 | 319 | 8.0 | 12.0 | 0.00 | 0.00 | 0.00 | 14 | 1019.3 |
| 20260509010442 | 76 | 281 | 8.0 | 15.0 | 0.00 | 0.00 | 0.00 | 14 | 1019.3 |
| 20260509005940 | 76 | 311 | 8.0 | 15.0 | 0.00 | 0.00 | 0.00 | 13 | 1019.4 |
| 20260509005705 | 77 | 271 | 8.0 | 15.0 | 0.00 | 0.00 | 0.00 | 14 | 1019.6 |
| 20260509004939 | 77 | 306 | 7.0 | 15.0 | 0.00 | 0.00 | 0.00 | 14 | 1019.7 |
| 20260509004439 | 78 | 288 | 7.0 | 15.0 | 0.00 | 0.00 | 0.00 | 14 | 1019.7 |
| 20260509003937 | 78 | 271 | 8.0 | 14.0 | 0.00 | 0.00 | 0.00 | 14 | 1020.0 |
| 20260509003436 | 78 | 289 | 9.0 | 16.0 | 0.00 | 0.00 | 0.00 | 14 | 1019.9 |
| 20260509002932 | 79 | 284 | 9.0 | 18.0 | 0.00 | 0.00 | 0.00 | 13 | 1020.4 |
| 20260509002432 | 80 | 296 | 8.0 | 18.0 | 0.00 | 0.00 | 0.00 | 13 | 1020.5 |
| 20260509001929 | 80 | 279 | 7.0 | 16.0 | 0.00 | 0.00 | 0.00 | 13 | 1021.0 |
| 20260509001430 | 80 | 304 | 6.0 | 15.0 | 0.00 | 0.00 | 0.00 | 14 | 1021.0 |
| 20260509000927 | 80 | 282 | 7.0 | 13.0 | 0.00 | 0.00 | 0.00 | 14 | 1020.8 |
| 20260509000433 | 79 | 315 | 6.0 | 13.0 | 0.00 | 0.00 | 0.00 | 13 | 1020.6 |
| 20260508235930 | 79 | 284 | 5.0 | 12.0 | 0.00 | 0.00 | 0.00 | 13 | 1020.6 |
| 20260508235430 | 80 | 224 | 4.0 | 8.0 | 0.00 | 0.00 | 0.00 | 14 | 1020.7 |
| 20260508234927 | 80 | 161 | 4.0 | 8.0 | 0.00 | 0.00 | 0.00 | 15 | 1020.8 |
| 20260508234649 | 80 | 188 | 3.0 | 9.0 | 0.00 | 0.00 | 0.00 | 15 | 1020.6 |
| 20260508233919 | 79 | 128 | 3.0 | 9.0 | 0.00 | 0.00 | 0.00 | 15 | 1020.4 |
| 20260508233639 | 78 | 152 | 2.0 | 6.0 | 0.00 | 0.00 | 0.00 | 16 | 1020.2 |
| 20260508232913 | 78 | 150 | 3.0 | 9.0 | 0.00 | 0.00 | 0.00 | 16 | 1020.1 |
| 20260508232633 | 78 | 150 | 5.0 | 9.0 | 0.00 | 0.00 | 0.00 | 15 | 1020.1 |
| 20260508231909 | 79 | 251 | 3.0 | 10.0 | 0.00 | 0.00 | 0.00 | 15 | 1020.2 |
| 20260508231406 | 79 | 138 | 2.0 | 10.0 | 0.00 | 0.00 | 0.00 | 15 | 1020.5 |